User: anonymous
Location: Brno
(49.2000°N, 16.6330°E)
Time: 11:49:20
(UTC+02:00)
Language:

Cosmos 1603 - Orbit

View from above orbital plane
View from above orbital plane
View from above satellite
View from above satellite

Ground track
Ground track

The orbit data is extracted from the following two-line orbital elements,

1 15333U 84106A   14212.37506211 -.00000182  00000-0 -70874-4 0   443
2 15333 071.0267 134.6642 0019665 001.9834 132.4252 14.13938071539584
Epoch (UTC): 31 July 2014 09:00:05
Eccentricity: 0.0019665
inclination: 71.0267°
perigee height: 832 km
apogee height: 860 km
right ascension of ascending node: 134.6642°
argument of perigee: 1.9834°
revolutions per day: 14.13938071
mean anomaly at epoch: 132.4252°
orbit number at epoch: 53958

The dashed part of the orbit path shows where the satellite is in the earth's shadow,  

DLR